Regional Weather Roundup
Issued by NWS

Home | Current Version | Previous Version | Text Only | Print | Product List | Glossary On
Versions: 1 2 3 4 5 6 7 8 9 10 11 12 13 14 15 16 17 18 19 20 21 22 23 24 25 26 27 28 29 30 31 32 33 34 35 36 37 38 39 40 41 42 43 44 45 46 47 48 49 50
000
ASUS43 KMPX 232010
RWRMN
WEATHER ROUNDUP FOR MINNESOTA
NATIONAL WEATHER SERVICE TWIN CITIES/CHANHASSEN MN
300 PM CDT MON APR 23 2018


NOTE: "FAIR" INDICATES FEW OR NO CLOUDS BELOW 12,000 FEET WITH NO
SIGNIFICANT WEATHER AND/OR OBSTRUCTIONS TO VISIBILITY. N/A MEANS
CURRENT SKY AND/OR WEATHER CONDITIONS ARE NOT AVAILABLE.

MNZ060>063-068>070-232100-
   Twin Cities Metro

CITY           SKY/WX    TMP DP  RH WIND       PRES   REMARKS
TWIN CITIES    FAIR      69  35  28 NW5       30.16F
ST PAUL        FAIR      67  32  27 SW6       30.16F
CRYSTAL        FAIR      67  34  29 VRB3      30.16F
BLAINE         SUNNY     70  36  28 W7        30.16F
LAKEVILLE      FAIR      66  37  34 SW5       30.16F
EDEN PRAIRIE   FAIR      67  38  34 VRB5      30.16F
SOUTH ST PAUL  FAIR      68  33  27 CALM      30.16F
LAKE ELMO      FAIR      68  36  30 W3        30.17F
$$
MNZ001>005-007-008-013>017-022>024-027-028-232100-
   Northwest Minnesota

CITY           SKY/WX    TMP DP  RH WIND       PRES   REMARKS
BEMIDJI        FAIR      66  34  30 W12G18    30.15R
HALLOCK        FAIR      63  28  27 NW15      30.18F
ROSEAU         FAIR      61  37  41 NW13      30.16S
WARROAD        FAIR      61  36  39 NW10G16   30.15F
THIEF RVR FALL FAIR      60  35  39 W12       30.19S
CROOKSTON      FAIR      61  39  44 NW9       30.19F
FOSSTON        FAIR      64  36  34 NW9       30.18S
DETROIT LAKES  FAIR      64  39  39 N6        30.17S
MOORHEAD       FAIR      64  45  48 N9        30.17F
PARK RAPIDS    FAIR      68  38  33 W8        30.14S
MAHNOMEN       FAIR      63  35  35 N8        30.17S
$$
MNZ006-009>011-018-025>026-232100-
   North Central Minnesota

CITY           SKY/WX    TMP DP  RH WIND       PRES   REMARKS
BAUDETTE       FAIR      61  35  37 N12       30.14S
FLAG ISLAND    FAIR      52  27  37 W10       30.14S
INTL FALLS     FAIR      64  33  31 NW15G22   30.12F
WASKISH        CLOUDY    63  37  39 SW8       30.15S
BIG FORK       FAIR      66  36  32 W7G20     30.13S
LONGVILLE      FAIR      70  37  30 SW9       30.14F
GRAND RAPIDS   FAIR      65  39  38 W9G18     30.15F
CRANE LAKE     FAIR      64  30  27 W6G17     30.12F
ORR            FAIR      68  28  22 W8        30.09F
COOK           FAIR      66  36  32 W10       30.12F
WALKER         MOCLDY    68  33  27 N7        30.13S
$$
MNZ012-019>021-037-232100-
   Northeast Minnesota

CITY           SKY/WX    TMP DP  RH WIND       PRES   REMARKS
DULUTH         FAIR      66  38  35 W8        30.14F
ELY            FAIR      64  32  29 W7        30.11S
HIBBING        FAIR      65  38  36 W8        30.12F
EVELETH        FAIR      66  38  36 W10G17    30.14S
DULUTH HARBOR  FAIR      66  36  32 SW7       30.14F
TWO HARBORS    FAIR      70  45  40 S13G18    30.11F
SILVER BAY     FAIR      64  36  34 S13G20    30.10F
GRAND MARAIS     N/A     43  34  70 SW9       30.13F
G MARAIS ARPRT FAIR      57  27  30 S10       30.13S
$$
MNZ029>031-032-039>041-046>048-054>057-064-232100-
   West Central Minnesota

CITY           SKY/WX    TMP DP  RH WIND       PRES   REMARKS
FERGUS FALLS   FAIR      64  39  39 W5        30.13F
WHEATON        SUNNY     68  36  30 W7        30.16F
MORRIS         SUNNY     68  37  32 CALM      30.15F
ALEXANDRIA     FAIR      68  35  29 VRB5      30.17F
ELBOW LAKE     FAIR      65  38  37 NW3       30.16F
WADENA         FAIR      64  43  45 W8        30.15F
GLENWOOD       FAIR      66  36  32 W5        30.17F
APPLETON       SUNNY     68  32  26 W6        30.16F
BENSON         SUNNY     68  34  28 N5        30.18F
ORTONVILLE     SUNNY     68  37  32 CALM      30.15F
MADISON        SUNNY     70  41  35 S3        30.16F
WILLMAR        FAIR      64  39  39 W7        30.19F
$$
MNZ033>034-036-042>043-049>051-058-059-232100-
   Central Minnesota

CITY           SKY/WX    TMP DP  RH WIND       PRES   REMARKS
ST CLOUD       FAIR      67  38  34 NW5       30.16F
SAUK CENTRE    FAIR      65  37  34 SW6G16    30.17F
PAYNESVILLE    FAIR      67  38  35 W3        30.17F
AITKIN         FAIR      64  36  34 SW5       30.14F
PINE RIVER     FAIR      63  39  42 W9        30.17F
BRAINERD       FAIR      68  37  32 SW6       30.15F
STAPLES        PTSUNNY   66  36  32 NW8       30.15F
LONG PRAIRIE   FAIR      66  34  30 S3        30.17F
LITTLE FALLS   FAIR      64  27  24 W5        30.16F
LITCHFIELD     FAIR      68  39  34 NW6       30.17F
BUFFALO        FAIR      65  39  38 W6        30.18F
MAPLE LAKE     FAIR      67  41  38 CALM      30.18F
HUTCHINSON     FAIR      66  42  41 CALM      30.18F
$$
MNZ037-044-045-052-053-232100-
   East Central Minnesota

CITY           SKY/WX    TMP DP  RH WIND       PRES   REMARKS
PRINCETON      FAIR      70  37  30 CALM      30.17F
MORA           FAIR      64  37  36 W6        30.18F
CAMBRIDGE      FAIR      70  45  40 CALM      30.17F
RUSH CITY      FAIR      66  35  31 W5        30.17F
MOOSE LAKE     FAIR      68  37  32 SW6       30.14S
HINCKLEY       FAIR      66  39  37 S6        30.16F
CLOQUET        FAIR      66  30  26 W9G17     30.14F
MCGREGOR       FAIR      66  36  32 W6        30.15F
$$
MNZ071>073-080-081-089-090-097-098-232100-
   Southwest Minnesota

CITY           SKY/WX    TMP DP  RH WIND       PRES   REMARKS
MONTEVIDEO     SUNNY     72  37  28 CALM      30.17F
GRANITE FALLS  SUNNY     68  40  35 CALM      30.18F
CANBY          SUNNY     68  33  27 CALM      30.17F
MARSHALL       SUNNY     65  36  34 VRB3      30.17F
REDWOOD FALLS  SUNNY     66  36  32 VRB3      30.16F
OLIVIA         SUNNY     64  36  34 SW6       30.16F
PIPESTONE      MOSUNNY  N/A N/A N/A E5        30.17F
WINDOM         SUNNY     64  34  32 N5        30.17F
WORTHINGTON    SUNNY     63  38  39 E6        30.18
JACKSON        SUNNY     61  36  39 NE3       30.18F
TRACY          SUNNY     64  37  37 SW6       30.17F
SLAYTON        SUNNY     63  38  39 CALM      30.19F
$$
MNZ065>067-074>077-082>085-091>093-232100-
   South Central Minnesota

CITY           SKY/WX    TMP DP  RH WIND       PRES   REMARKS
MANKATO        FAIR      65  39  38 VRB3      30.17F
NEW ULM        SUNNY     64  36  34 CALM      30.17F
ST JAMES       SUNNY     63  45  51 CALM      30.19F
FAIRMONT       SUNNY     61  41  47 N3        30.18F
GLENCOE        FAIR      65  41  41 S3        30.17F
OWATONNA       FAIR      66  39  37 NW8       30.17F
WASECA         FAIR      64  37  36 W7        30.19F
ALBERT LEA     FAIR      63  36  36 N6        30.17F
$$
MNZ078>079-086>088-094>096-232100-
   Southeast Minnesota

CITY           SKY/WX    TMP DP  RH WIND       PRES   REMARKS
ROCHESTER      FAIR      65  37  35 MISG      30.17F
RED WING       FAIR      70  25  18 S5        30.16F
STANTON        FAIR      67  33  28 CALM      30.16S
DODGE CENTER   FAIR      64  37  36 N7        30.18S
WINONA         FAIR      70  30  23 SE5       30.14F
AUSTIN         FAIR      64  37  36 E5        30.17F
PRESTON        FAIR      64  30  28 NE5       30.17F
$$
ABBREVIATIONS USED IN REMARKS
   TC - TEMPERATURES IN CELSIUS
  WCI - WIND CHILL INDEX
   HX - HEAT INDEX
  VSB - VISIBILITY
$$




USA.gov is the U.S. government's official web portal to all federal, state and local government web resources and services.